Voltar ao catálogo

STARLINK-5739

AtivoComunicaçõesVLEO
NORAD 55571·PAYLOAD·🇺🇸 United States

Lançado Feb 12, 2023 de Cape Canaveral Space Force Station

Loading…

Próximas Passagens (próximas 24 horas)

TLE

AtualizadoSource: CelesTrak SupGP

Época: Sep 14, 2026, 21:40 UTC

1 55571C 23020C   26257.90326389  .00007756  00000+0  28091-3 0  2576
2 55571  43.0041  20.0276 0001559 277.7679 335.3057 15.27574512    15

Acompanhe STARLINK-5739 em tempo real com AllMySat

Download on the App Store